Regional Weather Roundup
Issued by NWS Portland, ME

Home | Current Version | Previous Version | Text Only | Print | Product List | Glossary On
Versions: 1 2 3 4 5 6 7 8 9 10 11 12 13 14 15 16 17 18 19 20 21 22 23 24 25 26 27 28 29 30 31 32 33 34 35 36 37 38 39 40 41 42 43 44 45 46 47 48 49 50
000
ASUS41 KGYX 302305
RWRGYX
WEATHER ROUNDUP FOR MAINE AND NEW HAMPSHIRE
NATIONAL WEATHER SERVICE GRAY ME
700 PM EDT THU JUL 30 2015

MEZ002-005-006-010-012-015-018-020-021-024-026-027-029-310000-
MAINE

CITY           SKY/WX    TMP DP  RH WIND       PRES   REMARKS
PORTLAND       CLOUDY    76  71  85 S5        29.72S
SANFORD        CLOUDY    81  72  74 SW13G21   29.74S
BAR HARBOR     CLOUDY    66  66 100 CALM      29.76S
WISCASSET      CLOUDY    73  68  84 S5        29.74S
ROCKLAND       CLOUDY    68  64  88 S3        29.73F
FRYEBURG       LGT RAIN  76  75  97 CALM      29.73F
LEWISTONAUBURN CLOUDY    75  72  88 W6        29.73R
AUGUSTA        CLOUDY    76  70  82 S8        29.72S
WATERVILLE     CLOUDY    75  70  83 CALM      29.69R
BANGOR         CLOUDY    75  67  76 S14       29.71F
GREENVILLE       N/A     72  70  93 S3        29.73F
MILLINOCKET    CLOUDY    79  69  71 VRB6      29.71S
HOULTON        CLOUDY    76  65  68 S12G18    29.69F
PRESQUE ISLE   CLOUDY    77  66  69 S12       29.69F
FRENCHVILLE    CLOUDY    68  66  93 E3        29.70F
CARIBOU        CLOUDY    77  67  71 S10       29.69S
$$

NHZ002-005-008-009-011-012-014-310000-
NEW HAMPSHIRE

CITY           SKY/WX    TMP DP  RH WIND       PRES   REMARKS
PORTSMOUTH     LGT RAIN  75  70  84 SW18G25   29.75R
ROCHESTER      LGT RAIN  78  72  81 VRB3      29.74R
NASHUA         PTSUNNY   73  72  94 SW3       29.78R
MANCHESTER     CLOUDY    78  75  90 S9        29.75S
CONCORD        CLOUDY    75  70  84 SW8       29.76R
LACONIA        CLOUDY    73  68  83 SW14G21   29.74R
PLYMOUTH       FAIR      75  75  98 CALM      29.74S
BERLIN         LGT RAIN  73  70  90 CALM      29.75S FOG
WHITEFIELD     CLOUDY    73  69  87 SW3       29.77R
JAFFREY        CLOUDY    74  72  93 S7        29.81F
KEENE          PTSUNNY   75  68  78 SW3       29.79R
LEBANON        MOSUNNY   79  72  79 CALM      29.75S
MT WASHINGTON  LGT RAIN  55  55 100 W38         N/A  VSB 0
$$

VTZ005-007-008-310000-
VERMONT

CITY           SKY/WX    TMP DP  RH WIND       PRES   REMARKS
ST JOHNSBURY     N/A     74  69  85 MISG      29.73S
MONTPELIER     MOSUNNY   77  68  73 CALM      29.80S
BURLINGTON     MOSUNNY   79  70  74 S9        29.72R
$$

MAZ007-012-024-CTZ003-RIZ002-NYZ038-NYZ072-310000-
SOUTHERN NEW ENGLAND AND NY

CITY           SKY/WX    TMP DP  RH WIND       PRES   REMARKS
BOSTON         LGT RAIN  80  73  79 SW15      29.78R
WORCESTER      LGT RAIN  72  68  87 SW12      29.82F
NANTUCKET      PTCLDY    74  71  91 S10       29.86S
PROVIDENCE     LGT RAIN  77  72  84 SW12      29.83R
HARTFORD       RAIN      75  73  93 S15       29.79R FOG
ALBANY         MOSUNNY   84  60  44 W9        29.78R
NEW YORK CITY  CLOUDY    80  73  79 SW9       29.81R
$$

ANZ081-ANZ082-ANZ150-NHZ014-MEZ023>029-310000-
COASTAL MARINE OBSERVATIONS

STATION/POSITION TIME  TEMP    WIND        PRES    WAVE
                       AIR SEA DIR/SP/G            HT/PER
                 (UTC) (F)     (DEG/KT/KT) (MB)    (FT/S)
MOUNT DESERT ROC 2300   65     170/ 18/ 19 1008.1F
MATINICUS ROCK   2200   65     190/ 21/ 22 1007.4F
ISLE OF SHOALS   2200   79     210/ 15/ 16 1006.5R
JEFFREYS LEDGE   2203      68                N/A     4/ 4
CASHES LEDGE BUO 2250   71                 1007.4F   4/ 8
GEORGES BANK BUO 2150   68 65  220/ 10/ 10 1012.5    4/ 8
$$

.............KEY..............
   WCI - WIND CHILL
   TC  - TEMPERATURE IN CELSIUS
   VSB - VISIBILITY IN MILES
   HX  - HEAT INDEX
   FAIR- INDICATES FEW OR NO CLOUDS BELOW 12,000 FT, WITH NO
         SIGNIFICANT WEATHER AND/OR OBSTRUCTIONS TO VISIBILITY.




USA.gov is the U.S. government's official web portal to all federal, state and local government web resources and services.